フルス彗星

C/2021 Q4 ( Fuls )

English version
Home page
Updated on August 17, 2023

---------------------------------------------------------------------

・ プロフィール

発見日 2021年8月26日
発見光度 20.0等
発見者 David Carson Fuls (Mt. Lemmon)

・ 写真集

・ 軌道要素

Epoch 2023 Feb. 25.0 TT = JDT 2460000.5
T 2023 June 10.31761 TT                                 Rudenko
q   7.5647589            (2000.0)            P               Q
z  -0.0004256      Peri.  146.99002     +0.84722112     +0.52837246
 +/-0.0000045      Node   183.33301     -0.31928938     +0.58938846
e   1.0032198      Incl.   71.47371     +0.42458293     -0.61110048
>From 185 observations 2020 May 19-2023 June 8, mean residual 0".7.

・ 光度変化

        m1 = -5.5 + 5 logΔ + 22.0 log r

---------------------------------------------------------------------

軌道要素はM.P.E.C. 2023-M14に掲載されたものです。
光度グラフはComet for Windowsで作成したものです。

---------------------------------------------------------------------

Copyright(C) Seiichi Yoshida (comet@aerith.net). All rights reserved.